Location: Aranbee
(34.0885°N, 118.2342°W)
Time: 23:05:57
(UTC+00:00)

Transit 2A - All Passes

Search period start: 25 November 2020 00:00
Search period end: 05 December 2020 00:00
Orbit: 594 x 964 km, 66.7° (Epoch: 25 November)

Date Brightness Start Highest point End Pass type
(mag) Time Alt. Az. Time Alt. Az. Time Alt. Az.
25 Nov - 00:52:37 10° S 00:58:10 32° ESE 01:03:37 10° NE daylight
25 Nov - 02:35:25 10° SW 02:41:18 38° WNW 02:47:00 10° N visible
25 Nov - 09:46:50 10° NNE 09:47:46 10° NE 09:48:42 10° NE night (unlit)
25 Nov - 11:26:48 10° NNW 11:31:51 90° ENE 11:36:24 10° SSE visible
26 Nov - 00:19:28 10° SSE 00:24:10 22° ESE 00:28:49 10° ENE daylight
26 Nov - 02:00:49 10° SW 02:07:02 55° WNW 02:13:05 10° NNE visible
26 Nov - 10:52:42 10° NNW 10:57:41 56° ENE 11:02:10 10° SE night (unlit)
26 Nov - 12:38:29 10° W 12:40:05 12° WSW 12:41:39 10° WSW night (unlit)
26 Nov - 23:46:57 10° SE 23:50:13 15° ESE 23:53:28 10° ENE daylight
27 Nov - 01:26:27 10° SSW 01:32:49 78° WNW 01:39:01 10° NNE visible
27 Nov - 03:14:04 10° WNW 03:16:56 13° NW 03:19:45 10° NNW visible
27 Nov - 10:18:46 10° N 10:23:25 36° ENE 10:27:39 10° SE night (unlit)
27 Nov - 12:02:47 10° WNW 12:06:11 19° WSW 12:09:24 10° SSW night (unlit)
28 Nov - 00:52:19 10° SSW 00:58:40 75° ESE 01:04:51 10° NNE daylight
28 Nov - 02:38:10 10° W 02:42:27 19° NW 02:46:36 10° N visible
28 Nov - 09:45:00 10° N 09:49:05 24° NE 09:52:51 10° ESE night (unlit)
28 Nov - 11:27:57 10° NW 11:32:14 31° WSW 11:36:12 10° S night (unlit)
29 Nov - 00:18:27 10° S 00:24:34 51° ESE 00:30:32 10° NE daylight
29 Nov - 02:02:52 10° WSW 02:08:02 26° NW 02:13:03 10° N visible
29 Nov - 09:11:29 10° N 09:14:40 16° NE 09:17:39 10° E night (unlit)
29 Nov - 10:53:27 10° NW 10:58:14 50° WSW 11:02:34 10° S night (unlit)
29 Nov - 23:44:51 10° S 23:50:31 35° ESE 23:56:03 10° NE daylight
30 Nov - 01:27:56 10° WSW 01:33:42 36° WNW 01:39:16 10° N visible
30 Nov - 08:38:44 10° NNE 08:40:10 11° NE 08:41:34 10° ENE night (unlit)
30 Nov - 10:19:10 10° NNW 10:24:08 83° WSW 10:28:39 10° SSE night (unlit)
30 Nov - 23:11:36 10° SSE 23:16:31 24° ESE 23:21:19 10° NE daylight
01 Dec - 00:53:16 10° SW 00:59:26 51° WNW 01:05:22 10° NNE daylight
01 Dec - 09:45:03 10° NNW 09:49:59 61° ENE 09:54:27 10° SE night (unlit)
01 Dec - 11:31:59 10° W 11:32:19 10° WSW 11:32:40 10° WSW night (unlit)
01 Dec - 22:38:55 10° SE 22:42:32 16° ESE 22:46:07 10° ENE daylight
02 Dec - 00:18:51 10° SSW 00:25:12 72° WNW 00:31:20 10° NNE daylight
02 Dec - 02:06:59 10° WNW 02:09:22 12° NW 02:11:42 10° NNW visible
02 Dec - 09:11:04 10° NNW 09:15:45 39° ENE 09:20:00 10° SE night (unlit)
02 Dec - 10:55:21 10° WNW 10:58:26 17° WSW 11:01:22 10° SW night (unlit)
02 Dec - 23:44:41 10° SSW 23:51:03 80° ESE 23:57:12 10° NNE daylight
03 Dec - 01:30:53 10° W 01:34:52 17° NW 01:38:45 10° N visible
03 Dec - 08:37:16 10° N 08:41:25 26° NE 08:45:15 10° ESE night (unlit)
03 Dec - 10:20:25 10° NW 10:24:30 28° WSW 10:28:18 10° SSW night (unlit)
03 Dec - 23:10:45 10° S 23:16:56 55° ESE 23:22:55 10° NE daylight
04 Dec - 00:55:29 10° WSW 01:00:27 24° NW 01:05:16 10° N daylight
04 Dec - 08:03:43 10° N 08:07:01 17° NE 08:10:07 10° E night (unlit)
04 Dec - 09:45:52 10° NW 09:50:29 45° WSW 09:54:45 10° S night (unlit)
04 Dec - 22:37:05 10° S 22:42:52 38° ESE 22:48:28 10° NE daylight
